Location: Augustenthal
(51.7167°N, 10.2833°E)
Time: 04:41:56
(UTC+00:00)

COSMOS 2455 - Pass Details

Date: 18 May 2021
Orbit: 902 x 908 km, 67.1° (Epoch: 14 June)

Event Time Altitude Azimuth Distance (km) Brightness Sun altitude
Rises 23:17:16 0° 321° (NW) 3,546 6.7 -18.5°
Reaches altitude 10° 23:19:48 10° 318° (NW) 2,601 5.9 -18.5°
Maximum altitude 23:25:45 63° 239° (WSW) 1,010 2.9 -18.5°
Enters shadow 23:28:40 31° 169° (S) 1,551 3.5 -18.5°
